Regional Weather Roundup
Issued by NWS

Home | Current Version | Previous Version | Graphics & Text | Print | Product List | Glossary On
Versions: 1 2 3 4 5 6 7 8 9 10 11 12 13 14 15 16 17 18 19 20 21 22 23 24 25 26 27
000
ASUS45 KBOU 250407
RWRCO

WEATHER ROUNDUP FOR COLORADO
NATIONAL WEATHER SERVICE DENVER/BOULDER CO
1000 PM MDT MON APR 24 2017

NOTE: "FAIR" INDICATES FEW OR NO CLOUDS BELOW 12000 FEET WITH NO
SIGNIFICANT WEATHER AND/OR OBSTRUCTIONS TO VISIBILITY.

COZ001>005-013-030-031-250500-
...NORTHWEST COLORADO...

CITY           SKY/WX    TMP DP  RH WIND       PRES   REMARKS
CRAIG          CLOUDY    37  33  85 SE5       29.71R
HAYDEN         CLOUDY    32  28  86 S5        29.71R WCI  27
MEEKER         LGT RAIN  41  36  82 SW14      29.73R
MOUNT WERNER   NOT AVBL
STEAMBOAT SPGS CLOUDY    32  32 100 SE3       29.72S
WALDEN           N/A     32  30  93 NW5       29.71R WCI  27
$$

COZ006>008-011-250500-
...WEST CENTRAL VALLEYS...

CITY           SKY/WX    TMP DP  RH WIND       PRES   REMARKS
GRAND JUNCTION LGT RAIN  55  37  50 NW24G35   29.63R
MONTROSE       FAIR      55  26  32 CALM      29.62R
EAGLE          LGT RAIN  46  37  71 SW10G22   29.68R
RIFLE          LGT RAIN  47  38  71 NW22G33   29.69R
DELTA          CLOUDY    64  27  25 W15G23    29.60R
NUCLA          MOCLDY    59  21  23 W20G25    29.67R
$$

COZ017>023-064>068-250500-
...SOUTHWEST COLORADO...

CITY           SKY/WX    TMP DP  RH WIND       PRES   REMARKS
DURANGO        CLOUDY    49  29  46 NE5       29.74F
CORTEZ         CLOUDY    49  33  54 NE6       29.69R
PAGOSA SPRINGS CLOUDY    46  31  56 CALM      29.82S
TELLURIDE      MOCLDY    44  27  51 CALM      29.82F
WOLF CREEK PAS SNOW      27  27 100 S21G32    29.94S VSB 1/4 WCI  13
$$

COZ009-010-012-014-032>034-037-058>063-250500-
...CENTRAL COLORADO...

CITY           SKY/WX    TMP DP  RH WIND       PRES   REMARKS
ASPEN          CLOUDY    46  30  53 SW8       29.67S
BUENA VISTA    FAIR      46  26  45 N3        29.69S
COPPER MTN     LGT SNOW  34  25  69 S14G21    29.80F WCI  24
BERTHOUD PASS  FAIR      25  14  63 W20G25    29.79F WCI  11
COTTONWOOD PAS CLOUDY    43  23  45 W15G30    29.75R
GUNNISON       FAIR      47  28  47 NE6       29.69F
KREMMLING      LGT RAIN  45  36  70 NW15      29.69R
LEADVILLE      MOCLDY    35  24  64 SE12      29.73F WCI  27
MONARCH PASS   MIX PCPN  28  27  93 SW35      29.93F WCI  12
SALIDA         FAIR      48  30  50 CALM      29.76S
SUNLIGHT       HVY SNOW  30  28  93 SW15G36   29.79R VSB 1/4 WCI  19
WILKERSON PASS FAIR      32  21  64 SW14G22   29.81F WCI  22
$$

COZ069>075-250500-
...SAN LUIS VALLEY/SANGRE DE CRISTO MOUNTAINS...

CITY           SKY/WX    TMP DP  RH WIND       PRES   REMARKS
ALAMOSA        FAIR      48  28  46 W16       29.75F
LA VETA PASS   CLOUDY    37  25  60 SW16G33   29.93S
SAGUACHE       FAIR      45  27  49 NW6       29.74S
$$

COZ035-036-038>040-250500-
...NORTHERN COLORADO FRONT RANGE...

CITY           SKY/WX    TMP DP  RH WIND       PRES   REMARKS
DENVER INTL AP MOCLDY    50  37  61 NE16      29.58R
DMNS CITY PARK   N/A     51  36  55 NE7G15    29.58F
AURORA         NOT AVBL
FRONT RANGE AP NOT AVBL
ERIE MUNI ARPT MOCLDY    48  42  78 W6        29.58F
BOULDER MUN AP CLOUDY    50  41  71 W3        29.59F
CENTENNIAL     MOCLDY    50  36  58 N9        29.59R
BROOMFIELD     MOCLDY    48  41  76 W7        29.60S
FORT COLLINS   FAIR      48  43  82 NE3       29.58S
LONGMONT       CLOUDY    50  41  72 W7        29.60F
$$

COZ041-046-047-076>085-087-088-250500-
...PIKES PEAK/PALMER DIVIDE AND SOUTHERN FOOTHILLS...

CITY           SKY/WX    TMP DP  RH WIND       PRES   REMARKS
COLO. SPRINGS  CLOUDY    56  37  49 NE12      29.59F
A. F. ACADEMY  FAIR      52  28  39 N5        29.60S
SCHRIEVER AFB  MOCLDY    52  37  57 NW9       29.59F
ELLICOTT       FAIR     N/A N/A N/A NE10      29.57F
FALCON         MOCLDY    49  35  58 N5        29.63F
FORT CARSON    FAIR      58  34  41 SW3       29.57F
LIMON          FAIR      53  37  54 N7        29.55F
MONUMENT HILL  FAIR      48  32  53 SW6       29.64F
TRINIDAD       FAIR      60  24  25 W16       29.59F
$$

COZ042>045-048>051-090-091-250500-
...NORTHEAST COLORADO...

CITY           SKY/WX    TMP DP  RH WIND       PRES   REMARKS
GREELEY ARPT   MOCLDY    48  41  76 E13       29.57S
AKRON          MOCLDY    48  43  82 NE9       29.56F
BURLINGTON     NOT AVBL
WRAY           NOT AVBL
STERLING       CLOUDY    50  45  81 N9        29.57F
HOLYOKE        RAIN      55  43  62 E9        29.58F
FORT MORGAN    FAIR      47  41  77 NE12      29.57S
$$

COZ086-089-092>099-250500-
...SOUTHEAST COLORADO...

CITY           SKY/WX    TMP DP  RH WIND       PRES   REMARKS
PUEBLO         FAIR      62  32  32 W8        29.51S
LA JUNTA       FAIR      67  31  26 W16       29.49R
LAMAR          FAIR      65  40  39 S12       29.48R
SPRINGFIELD      N/A     60  40  47 NE12      29.49F
$$




USA.gov is the U.S. government's official web portal to all federal, state and local government web resources and services.